This is the latest recevied weather packets stored in our database for station/object KB9ZGZ. If no packets are shown the sender has not sent any weather packets the latest 10 day(s).
| Time | Temp. | Humidity | Pressure | Rain* | Wind** | Luminosity | Snow |
|---|---|---|---|---|---|---|---|
| 1777654857 | 13.33° C | 55% | 1013 hPa | 0 mm | - | - | - |
| 1777653948 | 13.33° C | 57% | 1013.3 hPa | 0.25 mm | - | - | - |
| 1777653039 | 12.78° C | 57% | 1013.3 hPa | 0.25 mm | - | - | - |
| 1777652145 | 12.78° C | 57% | 1013.2 hPa | 0.25 mm | - | - | - |
| 1777651243 | 12.78° C | 53% | 1013.2 hPa | 0.25 mm | - | - | - |
| 1777650367 | 12.22° C | 59% | 1013.4 hPa | 0.25 mm | - | - | - |
| 1777649447 | 12.22° C | 59% | 1013.3 hPa | 0.25 mm | - | - | - |
| 1777648535 | 11.67° C | 63% | 1013.1 hPa | 0.25 mm | - | - | - |
| 1777647634 | 11.11° C | 67% | 1012.9 hPa | 0.25 mm | - | - | - |
| 1777646732 | 11.11° C | 65% | 1012.8 hPa | 0.25 mm | - | - | - |
| 1777645838 | 10.56° C | 69% | 1012.9 hPa | 0.25 mm | - | - | - |
| 1777644931 | 10.56° C | 70% | 1012.7 hPa | 0.25 mm | - | - | - |
| 1777644031 | 9.44° C | 71% | 1012.8 hPa | 0.25 mm | - | - | - |
| 1777643128 | 9.44° C | 73% | 1012.9 hPa | 0.25 mm | - | - | - |
| 1777642228 | 8.89° C | 74% | 1012.9 hPa | 0.25 mm | - | - | - |
| 1777641341 | 8.33° C | 75% | 1012.8 hPa | 0.25 mm | - | - | - |
| 1777640427 | 7.22° C | 77% | 1012.6 hPa | 0.25 mm | - | - | - |
| 1777639556 | 6.67° C | 77% | 1012.5 hPa | 0.25 mm | - | - | - |
| 1777638655 | 6.67° C | 79% | 1012.4 hPa | 0.25 mm | - | - | - |
| 1777637753 | 6.11° C | 79% | 1012.3 hPa | 0.25 mm | - | - | - |
| 1777636871 | 5.56° C | 80% | 1011.9 hPa | 0.25 mm | - | - | - |
| 1777635952 | 5.56° C | 81% | 1011.9 hPa | 0.25 mm | - | - | - |
| 1777635065 | 5° C | 81% | 1011.8 hPa | 0.25 mm | - | - | - |
| 1777634146 | 5.56° C | 80% | 1011.5 hPa | 0.25 mm | - | - | - |
| 1777633247 | 5.56° C | 78% | 1011.4 hPa | 0.25 mm | - | - | - |
* Rain since midnight (hover to see other rain measurements)
** Current wind speed in m/s (hover to see current wind gust speed)